Rockingham, NC

12:07 PM EST on February 23, 2017 (GMT -0500)
Rockingham

Weather History for KRCZ - April, 2014

Change the Weather History Date:

Monday, April 28, 2014

  Actual Average (KHFF) Record (KHFF)
Temperature  
Mean Temperature 74 °F -  
Max Temperature 85 °F 74 °F 86 °F (2016)
Min Temperature 62 °F 54 °F 40 °F (2015)
Cooling Degree Days 9    
Growing Degree Days 24 (Base 50)    
Moisture  
Dew Point 63 °F    
Average Humidity 74    
Maximum Humidity 94    
Minimum Humidity 49    
Precipitation  
Precipitation 0.00 in - - ()
Sea Level Pressure  
Sea Level Pressure 29.92 in    
Wind  
Wind Speed 5 mph (SE)    
Max Wind Speed 14 mph    
Max Gust Speed 22 mph    
Visibility 10 miles    
Events Rain    
Averages and records for this station are not official NWS values.
T = Trace of Precipitation, MM = Missing Value Source: NWS Daily Summary

Daily Weather History Graph

Daily Weather History Graph

Search for Another Location

Airport or City:

Trip Planner

Search our weather history database for the weather conditions in past years. The results will help you decide how hot, cold, wet, or windy it might be!

Date:

Astronomy

Apr. 28, 2014 Rise Set
Actual Time 6:31 AM EDT 8:01 PM EDT
Civil Twilight 6:04 AM EDT 8:28 PM EDT
Nautical Twilight 5:32 AM EDT 9:01 PM EDT
Astronomical Twilight 4:59 AM EDT 9:34 PM EDT
Moon 6:06 AM EDT (4/28) 7:39 PM EDT (4/28)
Length of Visible Light 14h 23m
Length of Day
13h 30m
Waning Crescent, 0% of the Moon is Illuminated
Apr 28
Waning Crescent
Apr 29
New
May 6
First Quarter
May 14
Full
May 21
Last Quarter

Hourly Weather History & Observations

Time (EDT) Temp. Heat Index Dew Point Humidity Pressure Visibility Wind Dir Wind Speed Gust Speed Precip Events Conditions
12:15 AM 69.6 °F - 55.2 °F 60% 29.97 in 10.0 mi SSE 6.9 mph - N/A   Unknown
12:35 AM 69.8 °F - 56.3 °F 62% 29.97 in 10.0 mi South 6.9 mph - N/A   Unknown
12:55 AM 69.1 °F - 57.0 °F 65% 29.97 in 10.0 mi South 4.6 mph - N/A   Unknown
1:15 AM 68.9 °F - 57.4 °F 67% 29.97 in 10.0 mi South 4.6 mph - N/A   Unknown
1:35 AM 68.5 °F - 57.6 °F 68% 29.96 in 10.0 mi South 4.6 mph - N/A   Unknown
1:55 AM 68.2 °F - 57.7 °F 69% 29.96 in 10.0 mi South 4.6 mph - N/A   Unknown
2:15 AM 67.5 °F - 58.1 °F 72% 29.95 in 10.0 mi South 4.6 mph - N/A   Unknown
2:35 AM 67.3 °F - 58.1 °F 72% 29.95 in 10.0 mi South 3.5 mph - N/A   Unknown
2:55 AM 67.1 °F - 58.3 °F 73% 29.94 in 10.0 mi South 3.5 mph - N/A   Unknown
3:15 AM 66.9 °F - 58.6 °F 75% 29.94 in 10.0 mi South 3.5 mph - N/A   Unknown
3:35 AM 66.6 °F - 59.0 °F 77% 29.95 in 10.0 mi South 3.5 mph - N/A   Unknown
3:55 AM 66.6 °F - 59.0 °F 77% 29.95 in 10.0 mi SSE 3.5 mph - N/A   Unknown
4:15 AM 66.6 °F - 59.2 °F 77% 29.95 in 10.0 mi SSE 3.5 mph - N/A   Unknown
4:35 AM 66.4 °F - 59.4 °F 78% 29.95 in 10.0 mi Calm Calm - N/A   Unknown
4:55 AM 66.6 °F - 59.7 °F 79% 29.95 in 10.0 mi South 3.5 mph - N/A   Unknown
5:15 AM 66.2 °F - 59.9 °F 80% 29.95 in 10.0 mi South 3.5 mph - N/A   Unknown
5:35 AM 66.2 °F - 60.1 °F 81% 29.95 in 10.0 mi South 4.6 mph - N/A   Unknown
5:55 AM 66.4 °F - 60.4 °F 81% 29.95 in 10.0 mi Calm Calm - N/A   Unknown
6:15 AM 66.0 °F - 60.3 °F 82% 29.94 in 10.0 mi SE 6.9 mph - N/A   Unknown
6:35 AM 65.3 °F - 60.8 °F 85% 29.95 in 10.0 mi ESE 4.6 mph - N/A   Unknown
6:55 AM 64.8 °F - 60.8 °F 87% 29.96 in 10.0 mi ESE 3.5 mph - N/A   Unknown
7:15 AM 64.6 °F - 61.0 °F 88% 29.97 in 10.0 mi East 3.5 mph - N/A   Unknown
7:35 AM 64.9 °F - 61.0 °F 87% 29.97 in 10.0 mi East 3.5 mph - N/A   Unknown
7:55 AM 66.0 °F - 61.5 °F 85% 29.98 in 10.0 mi East 4.6 mph - N/A   Unknown
8:15 AM 66.4 °F - 61.9 °F 85% 29.97 in 10.0 mi East 4.6 mph - N/A   Unknown
8:35 AM 67.1 °F - 62.2 °F 84% 29.97 in 10.0 mi East 4.6 mph - N/A   Unknown
8:55 AM 67.3 °F - 62.4 °F 84% 29.97 in 10.0 mi ESE 4.6 mph - N/A   Unknown
9:15 AM 68.9 °F - 63.0 °F 81% 29.97 in 10.0 mi SE 3.5 mph - N/A   Unknown
9:55 AM 72.1 °F - 64.9 °F 78% 29.96 in 10.0 mi SSE 5.8 mph - N/A   Unknown
10:15 AM 73.4 °F - 65.8 °F 77% 29.95 in 10.0 mi SSE 4.6 mph - N/A   Unknown
10:35 AM 75.6 °F - 66.0 °F 72% 29.95 in 10.0 mi SSW 6.9 mph - N/A   Unknown
10:55 AM 77.0 °F - 65.8 °F 68% 29.94 in 10.0 mi South 4.6 mph - N/A   Unknown
11:15 AM 78.3 °F - 66.2 °F 66% 29.94 in 10.0 mi SSW 5.8 mph - N/A   Unknown
11:35 AM 79.0 °F - 66.9 °F 66% 29.94 in 10.0 mi SSW 6.9 mph - N/A   Unknown
12:15 PM 81.0 °F 83.4 °F 67.3 °F 63% 29.95 in 10.0 mi South 6.9 mph - N/A   Unknown
12:35 PM 80.6 °F 82.8 °F 66.6 °F 62% 29.94 in 10.0 mi SSW 4.6 mph - N/A   Unknown
1:15 PM 82.6 °F 84.7 °F 65.8 °F 57% 29.92 in 10.0 mi SSW 6.9 mph - N/A   Unknown
1:35 PM 83.7 °F 85.5 °F 65.7 °F 54% 29.91 in 10.0 mi SSW 10.4 mph - N/A   Unknown
1:55 PM 84.0 °F 85.6 °F 64.8 °F 52% 29.90 in 10.0 mi South 10.4 mph - N/A   Unknown
2:15 PM 84.0 °F 85.6 °F 64.4 °F 52% 29.90 in 10.0 mi South 10.4 mph 17.3 mph N/A   Unknown
2:35 PM 84.0 °F 85.4 °F 64.0 °F 51% 29.89 in 10.0 mi South 12.7 mph 17.3 mph N/A   Unknown
2:55 PM 84.0 °F 85.6 °F 64.6 °F 52% 29.88 in 10.0 mi South 12.7 mph 18.4 mph N/A   Unknown
3:15 PM 82.6 °F 84.7 °F 66.0 °F 57% 29.87 in 10.0 mi South 9.2 mph - N/A Rain Rain
3:35 PM 83.5 °F 85.1 °F 64.8 °F 53% 29.86 in 10.0 mi South 13.8 mph 19.6 mph N/A   Unknown
3:55 PM 85.3 °F 86.6 °F 64.4 °F 49% 29.86 in 10.0 mi SSW 13.8 mph 21.9 mph N/A   Unknown
4:15 PM 79.9 °F - 63.9 °F 58% 29.87 in 10.0 mi South 9.2 mph 12.7 mph N/A   Unknown
4:35 PM 77.5 °F - 66.4 °F 68% 29.86 in 10.0 mi SSE 6.9 mph - N/A   Unknown
5:15 PM 81.5 °F 84.1 °F 67.5 °F 62% 29.85 in 10.0 mi South 3.5 mph - N/A   Unknown
5:35 PM 82.6 °F 85.1 °F 66.9 °F 59% 29.85 in 10.0 mi SSE 3.5 mph - N/A   Unknown
5:55 PM 83.1 °F 85.9 °F 67.5 °F 59% 29.84 in 10.0 mi SSE 5.8 mph - N/A   Unknown
6:15 PM 81.0 °F 84.2 °F 69.6 °F 68% 29.85 in 10.0 mi ESE 3.5 mph - N/A   Unknown
6:35 PM 81.0 °F 84.6 °F 70.2 °F 70% 29.84 in 10.0 mi ESE 4.6 mph - N/A   Unknown
6:55 PM 81.1 °F 84.7 °F 70.2 °F 69% 29.85 in 10.0 mi Calm Calm - N/A   Unknown
7:15 PM 79.9 °F - 70.7 °F 73% 29.85 in 10.0 mi NE 4.6 mph - N/A   Unknown
7:35 PM 75.9 °F - 69.4 °F 80% 29.85 in 10.0 mi NE 6.9 mph - N/A   Unknown
7:55 PM 72.7 °F - 69.6 °F 90% 29.86 in 10.0 mi NE 8.1 mph - N/A   Unknown
8:15 PM 71.4 °F - 67.8 °F 88% 29.87 in 10.0 mi NE 6.9 mph - N/A   Unknown
8:35 PM 70.5 °F - 66.7 °F 88% 29.88 in 10.0 mi NE 8.1 mph - N/A   Unknown
8:55 PM 70.0 °F - 66.7 °F 89% 29.89 in 10.0 mi NE 5.8 mph - N/A   Unknown
9:15 PM 68.9 °F - 65.8 °F 90% 29.90 in 10.0 mi NE 9.2 mph - N/A   Unknown
9:35 PM 67.5 °F - 64.2 °F 89% 29.91 in 10.0 mi NNE 6.9 mph - N/A   Unknown
9:55 PM 66.4 °F - 62.6 °F 88% 29.91 in 10.0 mi NE 5.8 mph - N/A   Unknown
10:15 PM 65.3 °F - 61.9 °F 89% 29.90 in 10.0 mi ENE 4.6 mph - N/A   Unknown
10:55 PM 64.4 °F - 61.7 °F 91% 29.91 in 10.0 mi Calm Calm - N/A   Unknown
11:15 PM 63.7 °F - 61.3 °F 92% 29.90 in 10.0 mi NE 3.5 mph - N/A   Unknown
11:35 PM 63.3 °F - 61.3 °F 93% 29.90 in 10.0 mi NE 3.5 mph - N/A   Unknown
11:55 PM 62.8 °F - 61.2 °F 94% 29.90 in 7.0 mi North 3.5 mph - N/A   Unknown